Location: ???????????
(44.4062°N, 135.3991°E)
Time: 01:49:41
(UTC+00:00)

Meteor 1-16 - Pass Details

Date: 19 May 2025
Orbit: 816 x 872 km, 81.2° (Epoch: 16 June)

Event Time Altitude Azimuth Distance (km) Brightness Sun altitude
Rises 14:12:11 0° 349° (N) 3,358 9.2 -24.9°
Reaches altitude 10° 14:14:35 10° 349° (N) 2,426 8.1 -25.0°
Maximum altitude 14:20:05 89° 261° (W) 833 4.5 -25.2°
Enters shadow 14:20:44 71° 175° (S) 876 4.5 -25.2°
